User: anonymous   Login
Location: Unspecified
(0.0000°N, 0.0000°E)
Time: 19:30:16
(UTC+00:00)
Language:

HJS-4A - Orbit

View from above orbital plane
View from above orbital plane
View from above satellite
View from above satellite

Ground track
Ground track

The orbit is defined by the following mean orbital elements,

1 58691U          26145.57909088 +.00000000 +00000-0 +38773-4 0 00008
2 58691  50.0010  66.5643 0001060  35.4720 324.6228 13.41455871    01
Epoch (UTC): 25 May 2026 13:53:53
Eccentricity: 0.0001060
inclination: 50.0010°
perigee height: 1103 km
apogee height: 1105 km
right ascension of ascending node: 66.5643°
argument of perigee: 35.4720°
revolutions per day: 13.41455871
mean anomaly at epoch: 324.6228°

The dashed part of the orbit path shows where the satellite is in the earth's shadow,  

DLR